This is the latest recevied weather packets stored in our database for station/object DL9GRB-13. If no packets are shown the sender has not sent any weather packets the latest 10 day(s).
| Time | Temp. | Humidity | Pressure | Rain* | Wind** | Luminosity | Snow |
|---|---|---|---|---|---|---|---|
| 1777486986 | 11.67° C | 56% | 1029.5 hPa | 0 mm | - | 11 W/m² | - |
| 1777486806 | 12.22° C | 54% | 1029.6 hPa | 0 mm | - | 12 W/m² | - |
| 1777486626 | 12.78° C | 51% | 1029.7 hPa | 0 mm | - | 14 W/m² | - |
| 1777486446 | 12.78° C | 52% | 1029.5 hPa | 0 mm | - | 17 W/m² | - |
| 1777486266 | 12.78° C | 53% | 1029.4 hPa | 0 mm | - | 20 W/m² | - |
| 1777486086 | 12.78° C | 52% | 1029.3 hPa | 0 mm | - | 24 W/m² | - |
| 1777485906 | 12.78° C | 53% | 1029.5 hPa | 0 mm | - | 27 W/m² | - |
| 1777485726 | 12.78° C | 53% | 1029.4 hPa | 0 mm | - | 30 W/m² | - |
| 1777485546 | 12.78° C | 53% | 1029.4 hPa | 0 mm | - | 30 W/m² | - |
| 1777485366 | 12.78° C | 53% | 1029.6 hPa | 0 mm | - | 33 W/m² | - |
| 1777485186 | 12.78° C | 52% | 1029.4 hPa | 0 mm | - | 34 W/m² | - |
| 1777485006 | 12.78° C | 52% | 1029.5 hPa | 0 mm | - | 34 W/m² | - |
| 1777484826 | 12.78° C | 52% | 1029.5 hPa | 0 mm | - | 38 W/m² | - |
| 1777484646 | 12.78° C | 50% | 1029.3 hPa | 0 mm | - | 37 W/m² | - |
| 1777484466 | 13.33° C | 50% | 1029.6 hPa | 0 mm | - | 41 W/m² | - |
| 1777484286 | 13.33° C | 51% | 1029.4 hPa | 0 mm | - | 39 W/m² | - |
| 1777484106 | 13.33° C | 51% | 1029.3 hPa | 0 mm | - | 46 W/m² | - |
| 1777483926 | 13.33° C | 51% | 1029.4 hPa | 0 mm | - | 52 W/m² | - |
| 1777483746 | 13.33° C | 50% | 1029.5 hPa | 0 mm | - | 54 W/m² | - |
| 1777483566 | 13.33° C | 54% | 1029.4 hPa | 0 mm | - | 50 W/m² | - |
| 1777483386 | 13.33° C | 53% | 1029.4 hPa | 0 mm | - | 63 W/m² | - |
| 1777483206 | 13.89° C | 47% | 1029.3 hPa | 0 mm | - | 71 W/m² | - |
| 1777483026 | 13.89° C | 48% | 1029.4 hPa | 0 mm | - | 69 W/m² | - |
| 1777482846 | 14.44° C | 45% | 1029.4 hPa | 0 mm | - | 70 W/m² | - |
| 1777482666 | 14.44° C | 43% | 1029.4 hPa | 0 mm | - | 69 W/m² | - |
* Rain latest hour (hover to see other rain measurements)
** Current wind speed in m/s (hover to see current wind gust speed)